Palos Park, Illinois, United States (60464)
Lat: 41.67N, Lon: 87.83W
Wx Zone: ILZ014
Local Info
Past Weather Observations for Sunday, July 24, 2016

NOTE: This archive is for the closest National Weather Service station to Palos Park. Information may differ from the station used for current weather conditions.

Click here for Long-term Archive

Time Weather Temperature Dewpoint Humidity Pressure Winds Precip Visibility
23:53
Mostly Cloudy
75°F / 24°C 64°F / 18°C 69% 29.98 in
(1015 mb)
SW 10.4 mph
(SW 17 kph)
- 10SM
22:53
Mostly Cloudy
75°F / 24°C 66°F / 19°C 74% 29.95 in
(1014 mb)
SSE 15 mph
(SSE 24 kph)
- 10SM
21:53
Mostly Cloudy
77°F / 25°C 68°F / 20°C 74% 29.92 in
(1013 mb)
SW 13.8 mph
(SW 22 kph)
- 10SM
20:53
Mostly Cloudy
75°F / 24°C 70°F / 21°C 83% 29.89 in
(1012 mb)
S 9.2 mph
(S 15 kph)
- 10SM
19:53
Mostly Cloudy
75°F / 24°C 68°F / 20°C 78% 29.89 in
(1012 mb)
SSW 5.8 mph
(SSW 9 kph)
0.00 in
(0.00 mm)
10SM
19:42
Mostly Cloudy
77°F / 25°C 66°F / 19°C 69% 29.89 in
(1012 mb)
S 6.9 mph
(S 11 kph)
0.00 in
(0.00 mm)
10SM
18:53
Mostly Cloudy
Thunder Storms
73°F / 23°C 64°F / 18°C 74% 29.89 in
(1012 mb)
SSE 9.2 mph
(SSE 15 kph)
0.14 in
(3.56 mm)
10SM
17:53
Overcast
Thunder Storms
79°F / 26°C 63°F / 17°C 58% 29.89 in
(1012 mb)
NNW 26.5 mph
(NNW 43 kph)
0.03 in
(0.76 mm)
6SM
17:08
Mostly Cloudy
Thunder Storms
90°F / 32°C 79°F / 26°C 71% 29.86 in
(1011 mb)
SSE 12.7 mph
(SSE 20 kph)
- 10SM
16:53
Mostly Cloudy
91°F / 33°C 79°F / 26°C 67% 29.83 in
(1010 mb)
SSE 15 mph
(SSE 24 kph)
- 10SM
15:53
Mostly Cloudy
91°F / 33°C 79°F / 26°C 67% 29.86 in
(1011 mb)
SSE 15 mph
(SSE 24 kph)
0.00 in
(0.00 mm)
10SM
14:53
Mostly Cloudy
93°F / 34°C 79°F / 26°C 63% 29.86 in
(1011 mb)
SW 19.6 mph
(SW 32 kph)
- 10SM
13:53
Mostly Cloudy
93°F / 34°C 79°F / 26°C 63% 29.86 in
(1011 mb)
SW 17.3 mph
(SW 28 kph)
- 10SM
12:53
Mostly Cloudy
91°F / 33°C 79°F / 26°C 67% 29.89 in
(1012 mb)
S 18.4 mph
(S 30 kph)
- 10SM
11:53
Mostly Cloudy
90°F / 32°C 77°F / 25°C 67% 29.89 in
(1012 mb)
SW 15 mph
(SW 24 kph)
- 10SM
10:53
Mostly Cloudy
90°F / 32°C 77°F / 25°C 67% 29.89 in
(1012 mb)
SW 15 mph
(SW 24 kph)
- 10SM
09:53
Mostly Cloudy
86°F / 30°C 75°F / 24°C 70% 29.92 in
(1013 mb)
S 15 mph
(S 24 kph)
- 10SM
08:53
Mostly Cloudy
82°F / 28°C 73°F / 23°C 74% 29.92 in
(1013 mb)
S 13.8 mph
(S 22 kph)
- 10SM
07:53
Mostly Cloudy
79°F / 26°C 72°F / 22°C 79% 29.92 in
(1013 mb)
S 12.7 mph
(S 20 kph)
- 10SM
06:53
Mostly Cloudy
75°F / 24°C 70°F / 21°C 83% 29.95 in
(1014 mb)
S 10.4 mph
(S 17 kph)
- 10SM
05:53
Mostly Cloudy
73°F / 23°C 70°F / 21°C 89% 29.92 in
(1013 mb)
S 8.1 mph
(S 13 kph)
- 10SM
04:53
Mostly Cloudy
73°F / 23°C 70°F / 21°C 89% 29.92 in
(1013 mb)
S 9.2 mph
(S 15 kph)
- 10SM
03:53
Mostly Cloudy
73°F / 23°C 70°F / 21°C 89% 29.92 in
(1013 mb)
S 6.9 mph
(S 11 kph)
- 10SM
02:53
Mostly Cloudy
73°F / 23°C 70°F / 21°C 89% 29.92 in
(1013 mb)
S 5.8 mph
(S 9 kph)
- 10SM
01:53
Overcast
73°F / 23°C 70°F / 21°C 89% 29.92 in
(1013 mb)
S 8.1 mph
(S 13 kph)
0.00 in
(0.00 mm)
10SM
00:53
Overcast
Light Rain
73°F / 23°C 70°F / 21°C 89% 29.95 in
(1014 mb)
S 6.9 mph
(S 11 kph)
0.03 in
(0.76 mm)
10SM
00:19
Overcast
Light Rain
73°F / 23°C 70°F / 21°C 89% 29.98 in
(1015 mb)
SE 9.2 mph
(SE 15 kph)
0.02 in
(0.51 mm)
10SM
Time Weather Temperature Dewpoint Humidity Pressure Winds Precip Visibility


Weather for websites

WeatherForYou.com, LLC is not responsible for any damages or problems caused by this service. Current weather conditions are obtained from the closest station including government and personal stations which may have varying degrees of accuracy. Weather forecasts are derived from the NOAA NDFD. Like all things, this site belongs to Jesus Christ... He just trusts us to maintain it. If you have any questions or comments email webmaster@weatherforyou.com

Copyright © 2016, WeatherForYou.com LLC. All rights reserved.